Location: Coopersdale
(40.3556°N, 78.9372°W)
Time: 01:47:46
(UTC+00:00)

Tiros 1 despin weight - Pass Details

Date: 20 January 2021
Orbit: 593 x 642 km, 48.2° (Epoch: 02 March)

Event Time Altitude Azimuth Distance (km) Brightness Sun altitude
Rises 03:08:45 0° 298° (WNW) 2,832 - -54.3°
Reaches altitude 10° 03:11:03 10° 295° (WNW) 1,925 - -54.7°
Maximum altitude 03:15:24 62° 215° (SW) 667 - -55.5°
Drops below altitude 10° 03:19:44 10° 135° (SE) 1,917 - -56.2°
Sets 03:22:02 0° 132° (SE) 2,819 - -56.6°
